Location: ??????
(41.3747°N, 22.5491°E)
Time: 06:06:29
(UTC+00:00)

COSMO-SKYMED 1 - Pass Details

Date: 01 December 2020
Orbit: 621 x 623 km, 97.9° (Epoch: 20 January)

Event Time Altitude Azimuth Distance (km) Brightness Sun altitude
Exits shadow 15:46:17 - 33° (NNE) 2,375 5.1 -8.5°
Reaches altitude 10° 15:47:23 10° 40° (NE) 2,001 4.6 -8.7°
Maximum altitude 15:50:54 24° 95° (E) 1,306 3.7 -9.3°
Drops below altitude 10° 15:54:24 10° 149° (SSE) 1,987 5.1 -9.9°
Sets 15:56:55 0° 163° (SSE) 2,887 6.0 -10.4°
